Zurück zum Katalog

EKRAN 2 DEB

AktivGEO
NORAD 12996·DEBRIS·🇷🇺 Russia

Gestartet Sep 20, 1977 von Baikonur Cosmodrome

Loading…

TLE

AktuellSource: Space-Track

Epoche: Sep 14, 2026, 13:22 UTC

1 12996U 77092J   26257.55723383  .00000115  00000-0  00000-0 0  9997
2 12996   4.0815 273.6626 0023043 290.2511 207.2095  1.00037995 85407

Verfolge EKRAN 2 DEB in Echtzeit mit AllMySat

Download on the App Store